This demonstration page uses our WeatherBlox Daily Observations layout. Learn more.

Hourly Observations for January 5, 2018

Temp ( °F °C ) Dew Point ( °F °C ) Humidity (%) Winds ( mph kmh ) Pressure ( in mb ) Visibility ( mi km ) Precip ( " mm )
12:15 am 00:15 Clear 20 -6.8 19 -7.3 96 96 NW 5 7 30.36 1028 10 16.0934 0 0
12:35 am 00:35 Clear 19 -7.2 19 -7.5 98 98 Calm 30.36 1028 10 16.0934 0 0
12:55 am 00:55 Clear 20 -6.8 19 -7 98 98 NW 3 6 30.36 1028 10 16.0934 0 0
1:15 am 01:15 Clear 18 -7.6 18 -7.8 98 98 Calm 30.36 1028 10 16.0934 0 0
1:35 am 01:35 Clear 19 -7.5 18 -7.6 99 99 NNW 3 6 30.36 1028 7 11.26538 0 0
1:55 am 01:55 Clear 18 -8 17 -8.1 99 99 N 5 7 30.39 1029 7 11.26538 0 0
2:15 am 02:15 Clear 18 -7.7 18 -7.8 99 99 N 6 9 30.39 1029 7 11.26538 0 0
2:35 am 02:35 Clear 18 -7.7 18 -7.8 99 99 N 7 11 30.39 1029 7 11.26538 0 0
2:55 am 02:55 Clear 18 -8 17 -8.2 98 98 N 5 7 30.39 1029 7 11.26538 0 0
3:15 am 03:15 Clear 17 -8.1 17 -8.3 98 98 N 5 7 30.39 1029 7 11.26538 0 0
3:35 am 03:35 Partly Cloudy with Mist and Fog 16 -9.1 15 -9.3 98 98 Calm 30.39 1029 5 8.0467 0 0
3:55 am 03:55 Partly Cloudy with Mist and Fog 17 -8.3 17 -8.5 98 98 Calm 30.39 1029 3 4.82802 0 0
4:15 am 04:15 Cloudy with Freezing Fog 15 -9.3 15 -9.6 98 98 Calm 30.39 1029 0.5 0.80467 0 0
4:35 am 04:35 Mostly Cloudy with Freezing Fog 15 -9.7 14 -10 98 98 ENE 3 6 30.39 1029 0.5 0.80467 0 0
4:55 am 04:55 Clear 14 -9.8 14 -10.1 98 98 NE 7 11 30.42 1030 7 11.26538 0 0
5:15 am 05:15 Clear 14 -9.8 14 -10.2 97 97 NE 5 7 30.42 1030 10 16.0934 0 0
5:35 am 05:35 Clear 14 -10.1 13 -10.6 96 96 NNE 6 9 30.42 1030 10 16.0934 0 0
5:55 am 05:55 Clear 14 -10.2 13 -10.7 96 96 NNE 5 7 30.42 1030 10 16.0934 0 0
6:15 am 06:15 Clear 13 -10.6 12 -11.1 96 96 ENE 3 6 30.45 1031 10 16.0934 0 0
6:35 am 06:35 Clear 12 -11 11 -11.6 95 95 ENE 5 7 30.45 1031 10 16.0934 0 0
6:55 am 06:55 Clear 12 -11.1 11 -11.8 95 95 ENE 5 7 30.45 1031 10 16.0934 0 0
7:15 am 07:15 Clear 13 -10.7 12 -11.3 95 95 ENE 6 9 30.45 1031 10 16.0934 0 0
7:35 am 07:35 Clear 13 -10.7 11 -11.4 95 95 ENE 8 13 30.45 1031 10 16.0934 0 0
7:55 am 07:55 Clear 12 -11 11 -11.5 96 96 ENE 7 11 30.48 1032 10 16.0934 0 0
8:15 am 08:15 Sunny 12 -11.1 11 -11.7 95 95 ENE 7 11 30.48 1032 10 16.0934 0 0
8:35 am 08:35 Sunny 13 -10.5 12 -11 96 96 NE 7 11 30.5 1033 10 16.0934 0 0
8:55 am 08:55 Sunny 13 -10.5 12 -11 96 96 NE 10 17 30.5 1033 10 16.0934 0 0
9:15 am 09:15 Sunny 13 -10.3 13 -10.8 96 96 ENE 9 15 30.5 1033 7 11.26538 0 0
9:35 am 09:35 Sunny 14 -10.1 13 -10.6 96 96 ENE 9 15 30.5 1033 7 11.26538 0 0
9:55 am 09:55 Sunny 14 -10.2 13 -10.7 96 96 E 9 15 30.5 1033 7 11.26538 0 0
10:15 am 10:15 Partly Cloudy with Mist and Fog 14 -10.1 13 -10.6 96 96 E 9 15 30.5 1033 5 8.0467 0 0
10:35 am 10:35 Mostly Cloudy with Mist and Fog 14 -10.1 13 -10.6 96 96 E 9 15 30.5 1033 5 8.0467 0 0
10:55 am 10:55 Cloudy with Mist and Fog 14 -9.8 13 -10.3 96 96 E 9 15 30.5 1033 5 8.0467 0 0
11:15 am 11:15 Cloudy with Mist and Fog 15 -9.3 15 -9.7 97 97 E 10 17 30.48 1032 4 6.43736 0 0
11:35 am 11:35 Cloudy with Mist and Fog 15 -9.5 14 -10 96 96 E 9 15 30.48 1032 3 4.82802 0 0
11:55 am 11:55 Cloudy with Mist and Fog 15 -9.5 14 -9.9 97 97 E 9 15 30.48 1032 3 4.82802 0 0
12:15 pm 12:15 Cloudy with Mist and Fog 16 -9 15 -9.5 96 96 ESE 5 7 30.48 1032 3 4.82802 0 0
12:35 pm 12:35 Cloudy with Mist and Fog 16 -8.9 15 -9.2 98 98 SSE 6 9 30.48 1032 3 4.82802 0 0
12:55 pm 12:55 Cloudy with Mist and Fog 17 -8.6 16 -9 97 97 ESE 7 11 30.48 1032 3 4.82802 0 0
1:15 pm 13:15 Cloudy with Mist and Fog 17 -8.3 17 -8.6 98 98 E 9 15 30.45 1031 3 4.82802 0 0
1:35 pm 13:35 Cloudy with Mist and Fog 17 -8.3 17 -8.6 98 98 E 9 15 30.45 1031 3 4.82802 0 0
1:55 pm 13:55 Cloudy with Mist and Fog 17 -8.2 17 -8.5 98 98 E 6 9 30.45 1031 4 6.43736 0 0
2:15 pm 14:15 Cloudy with Mist and Fog 18 -7.8 17 -8.1 98 98 E 7 11 30.45 1031 4 6.43736 0 0
2:35 pm 14:35 Cloudy with Mist and Fog 19 -7.3 18 -7.6 98 98 E 9 15 30.45 1031 5 8.0467 0 0
2:55 pm 14:55 Mostly Cloudy 20 -6.8 19 -7.4 96 96 E 9 15 30.42 1030 7 11.26538 0 0
3:15 pm 15:15 Partly Cloudy with Mist and Fog 19 -7 17 -8.1 92 92 ENE 7 11 30.42 1030 5 8.0467 0 0
3:35 pm 15:35 Partly Cloudy with Mist and Fog 19 -7 17 -8.5 89 89 ENE 10 17 30.42 1030 5 8.0467 0 0
3:55 pm 15:55 Sunny 20 -6.8 16 -8.8 86 86 ENE 10 17 30.42 1030 7 11.26538 0 0
4:15 pm 16:15 Sunny 20 -6.8 16 -9.1 84 84 ENE 10 17 30.42 1030 10 16.0934 0 0
4:35 pm 16:35 Sunny 18 -7.6 15 -9.6 86 86 E 9 15 30.48 1032 10 16.0934 0 0
4:55 pm 16:55 Sunny 18 -7.9 14 -9.9 86 86 ENE 8 13 30.48 1032 10 16.0934 0 0
5:15 pm 17:15 Sunny 17 -8.3 14 -10 88 88 ENE 9 15 30.48 1032 7 11.26538 0 0
5:35 pm 17:35 Clear 16 -8.9 13 -10.4 89 89 E 9 15 30.48 1032 10 16.0934 0 0
5:55 pm 17:55 Clear 16 -9 13 -10.5 89 89 E 7 11 30.48 1032 10 16.0934 0 0
6:15 pm 18:15 Clear 15 -9.2 13 -10.8 88 88 E 7 11 30.48 1032 10 16.0934 0 0
6:35 pm 18:35 Clear 15 -9.7 12 -11.2 89 89 E 9 15 30.48 1032 10 16.0934 0 0
6:55 pm 18:55 Clear 15 -9.7 11 -11.5 87 87 E 8 13 30.53 1034 10 16.0934 0 0
7:15 pm 19:15 Clear 14 -10 11 -11.6 88 88 E 8 13 30.53 1034 10 16.0934 0 0
7:35 pm 19:35 Clear 14 -10.1 11 -11.8 88 88 E 8 13 30.53 1034 10 16.0934 0 0
7:55 pm 19:55 Clear 13 -10.4 10 -12 88 88 E 8 13 30.53 1034 10 16.0934 0 0
8:15 pm 20:15 Clear 13 -10.6 10 -12 90 90 E 8 13 30.53 1034 10 16.0934 0 0
8:35 pm 20:35 Clear 13 -10.6 10 -12 90 90 E 10 17 30.53 1034 10 16.0934 0 0
8:55 pm 20:55 Clear 12 -11 10 -12.3 90 90 E 9 15 30.56 1035 10 16.0934 0 0
9:15 pm 21:15 Clear 12 -11.1 10 -12.5 90 90 E 9 15 30.56 1035 10 16.0934 0 0
9:35 pm 21:35 Clear 11 -11.5 9 -12.6 92 92 E 8 13 30.56 1035 10 16.0934 0 0
9:55 pm 21:55 Clear 11 -11.7 9 -12.8 92 92 E 7 11 30.56 1035 10 16.0934 0 0
10:15 pm 22:15 Clear 11 -11.9 9 -13 92 92 E 8 13 30.56 1035 10 16.0934 0 0
10:35 pm 22:35 Clear 10 -12 9 -13 92 92 ESE 5 7 30.56 1035 10 16.0934 0 0
10:55 pm 22:55 Clear 10 -12.3 8 -13.3 92 92 ESE 3 6 30.59 1036 10 16.0934 0 0
11:15 pm 23:15 Clear 10 -12.3 8 -13.2 93 93 ESE 6 9 30.59 1036 10 16.0934 0 0
11:35 pm 23:35 Clear 10 -12.2 8 -13.1 93 93 ESE 5 7 30.59 1036 10 16.0934 0 0
11:55 pm 23:55 Clear 10 -12 9 -13 92 92 ESE 5 7 30.56 1035 10 16.0934 0 0

Powered by AerisWeather